Regional Weather Roundup
Issued by NWS

Home | Current Version | Previous Version | Graphics & Text | Print | Product List | Glossary On
Versions: 1 2 3 4 5 6 7 8 9 10 11 12 13 14 15 16 17 18 19 20 21 22 23 24 25 26 27 28 29 30 31 32 33 34 35 36 37 38 39 40 41 42 43 44 45 46 47 48 49 50
966
ASUS44 KJAN 312010
RWRMS

MISSISSIPPI HOURLY WEATHER ROUNDUP
NATIONAL WEATHER SERVICE JACKSON MS
300 PM CDT FRI OCT 31 2014

NOTE: "FAIR: INDICATES FEW OR NO CLOUDS BELOW 12,000 FEET WITH NO
SIGNIFICANT WEATHER AND/OR OBSTRUCTIONS TO VISIBILITY.

MSZ001>002-007>008-010>013-018>021-025>028-034>036-312100-
NORTHWEST MISSISSIPPI

CITY           SKY/WX    TMP DP  RH WIND       PRES   REMARKS
CLARKSDALE     PTSUNNY   57  46  67 N20G28    30.15S
CLEVELAND      CLOUDY    62  46  57 N17G29    30.13R
GREENWOOD      PTSUNNY   61  45  55 N22G29    30.10S
GREENVILLE     MOSUNNY   62  44  51 N23       30.12S
GRENADA        MOCLDY    59  45  58 N21G29    30.10R
OLIVE BRANCH   CLOUDY    52  43  71 N14       30.15R
OXFORD         CLOUDY    54  43  66 N13G21    30.12S
TUNICA         MOCLDY    55  43  62 NW25G31   30.17R
$$

MSZ003>006-009-014>017-022>024-029>033-037>039-312100-
NORTHEAST MISSISSIPPI

CITY           SKY/WX    TMP DP  RH WIND       PRES   REMARKS
COLUMBUS AFB   MOSUNNY   64  46  52 NW22      30.00F
CORINTH        CLOUDY    55  43  62 NW17G26   30.07R
GOLDN TRIANGLE PTSUNNY   64  46  52 N16G23    29.99F
STARKVILLE     FAIR      63  46  55 NW7G18    30.02S
TUPELO         CLOUDY    58  45  62 N18G25    30.05R
$$

MSZ040-058-312100-
CENTRAL MISSISSIPPI

CITY           SKY/WX    TMP DP  RH WIND       PRES   REMARKS
JACKSON INTL   MOSUNNY   67  46  47 NW20G28   30.05R
JACKSON HAWKNS MOSUNNY   66  46  48 NW12G25   30.06S
MERIDIAN KEY   MOSUNNY   69  47  45 N20G25    29.98R
MERIDIAN NAS   PTSUNNY   70  46  42 N17       29.98S
RAYMOND        FAIR      66  63  88 NW13G24   30.07R
VICKSBURG      PTSUNNY   66  47  50 N13G22    30.10S
$$

MSZ059>079-312100-
SOUTH MISSISSIPPI

CITY           SKY/WX    TMP DP  RH WIND       PRES   REMARKS
BROOKHAVEN     FAIR      70  46  43 NW15G21   30.06S
COLUMBIA         N/A     72  45  37 MISG      29.99F
HATTIESBURG    MOSUNNY   72  45  37 NW9G22    29.99S
MCCOMB         SUNNY     71  44  37 N21G28    30.04S
NATCHEZ        MOSUNNY   70  46  43 N14G21    30.09S
PINE BELT      MOSUNNY   72  45  37 NW10G18   30.01S
$$

MSZ080>082-312100-
COASTAL MISSISSIPPI

CITY           SKY/WX    TMP DP  RH WIND       PRES   REMARKS
BAY ST LOUIS   SUNNY     75  36  23 N12G20    29.97F
BILOXI         SUNNY     76  45  33 NW14G23   29.95S
PASCAGOULA     SUNNY     75  43  31 NW13G21   29.93F
GULFPORT       MOSUNNY   75  42  30 NW18G26   29.95S
$$



USA.gov is the U.S. government's official web portal to all federal, state and local government web resources and services.